AGH weather

Ängelholm-Helsingborg Airport
Ängelholm, Skåne län, Sweden

Public forecast

Using degrees Celsius for public forecast. Weather courtesy of forecast.io.

METAR (pilot weather report)

Retrieved 2018/12/11 18:20 UTC (1 minute ago):

ESTA 111820Z 33007KT 9999 BKN018 04/01 Q1021

TAF (pilot weather forecast)

Forecast is more than 12 hours old.

Closest forecast is Ljungbyhed Airport, 17.7 nm (32.8 km) SE. Retrieved 2016/03/01 09:33 UTC (3 years ago):

TAF ESTL 010830Z 0109/0124 14004KT 9999 SCT025